📊 Raw Sensor Data
Showing records 32776 to 32800 of 84,731 total
| ID | Distance (ft) | Battery V | Battery A | Int Temp (°F) | Int Humid (%) | Ext Temp (°F) | Solar V | RSSI | SNR | Time Stamp |
|---|---|---|---|---|---|---|---|---|---|---|
| 51968 | 15.1 | 4.02 | 5 | 76 | 41 | 78 | 5.10 | -74 | 8 | 09/14/2025 10:15 AM |
| 51967 | 15.0 | 4.02 | 0 | 74 | 41 | 77 | 5.10 | -73 | 8 | 09/14/2025 10:00 AM |
| 51966 | 15.1 | 4.01 | 5 | 72 | 41 | 76 | 5.10 | -74 | 8 | 09/14/2025 09:45 AM |
| 51965 | 15.0 | 4.01 | 0 | 70 | 41 | 74 | 5.10 | -75 | 8 | 09/14/2025 09:30 AM |
| 51964 | 15.0 | 4.14 | 0 | 69 | 41 | 73 | 5.10 | -73 | 7 | 09/14/2025 09:15 AM |
| 51963 | 14.9 | 4.01 | 0 | 66 | 41 | 71 | 5.10 | -74 | 7 | 09/14/2025 08:45 AM |
| 51962 | 14.9 | 4.01 | 0 | 64 | 41 | 70 | 5.10 | -75 | 8 | 09/14/2025 08:30 AM |
| 51961 | 14.8 | 4.01 | 5 | 62 | 41 | 68 | 5.10 | -73 | 7 | 09/14/2025 08:15 AM |
| 51960 | 14.7 | 4.02 | 0 | 60 | 41 | 67 | 5.10 | -71 | 7 | 09/14/2025 08:00 AM |
| 51959 | 14.7 | 4.14 | 38 | 58 | 42 | 65 | 4.50 | -70 | 8 | 09/14/2025 07:45 AM |
| 51958 | 14.7 | 4.03 | 23 | 56 | 43 | 63 | 4.50 | -70 | 8 | 09/14/2025 07:30 AM |
| 51957 | 14.7 | 4.03 | 9 | 55 | 44 | 59 | 4.50 | -71 | 8 | 09/14/2025 07:15 AM |
| 51956 | 14.7 | 3.94 | -7 | 54 | 44 | 56 | 4.50 | -72 | 8 | 09/14/2025 07:00 AM |
| 51955 | 14.7 | 3.93 | -10 | 54 | 44 | 55 | 2.20 | -70 | 8 | 09/14/2025 06:45 AM |
| 51954 | 14.7 | 3.94 | -5 | 55 | 44 | 56 | 0.50 | -71 | 8 | 09/14/2025 06:30 AM |
| 51953 | 14.7 | 3.94 | -5 | 55 | 44 | 56 | 0.10 | -70 | 8 | 09/14/2025 06:15 AM |
| 51952 | 14.7 | 3.94 | -5 | 55 | 44 | 56 | 0.00 | -71 | 8 | 09/14/2025 06:00 AM |
| 51951 | 14.7 | 4.00 | -5 | 55 | 44 | 56 | 0.00 | -70 | 8 | 09/14/2025 05:45 AM |
| 51950 | 14.7 | 3.95 | -5 | 55 | 44 | 56 | 0.00 | -71 | 8 | 09/14/2025 05:30 AM |
| 51949 | 14.7 | 3.95 | -5 | 55 | 44 | 56 | 0.00 | -72 | 8 | 09/14/2025 05:15 AM |
| 51948 | 14.7 | 4.00 | -5 | 55 | 44 | 56 | 0.00 | -71 | 8 | 09/14/2025 05:00 AM |
| 51947 | 14.7 | 3.95 | -5 | 56 | 44 | 57 | 0.10 | -71 | 8 | 09/14/2025 04:45 AM |
| 51946 | 14.7 | 3.95 | -5 | 57 | 44 | 58 | 0.00 | -72 | 7 | 09/14/2025 04:30 AM |
| 51945 | 14.7 | 3.95 | -5 | 57 | 44 | 58 | 0.00 | -72 | 7 | 09/14/2025 04:15 AM |
| 51944 | 14.7 | 3.95 | -5 | 57 | 44 | 59 | 0.00 | -72 | 7 | 09/14/2025 04:00 AM |